FW8034 Weather Reports


Display with metric or nautical units.
time (UTC)temp
F
wind
direction
speed
MPH
gust
MPH
rain 1hr
in
rain 24hr
in
rain mn
in
humidity
%
barometer
mb
20260507114133 42 273 1.0 1.0 0.00 0.00 0.00 71 1048.0
20260507113631 42 291 0.0 2.0 0.00 0.00 0.00 71 1047.9
20260507113127 42 271 1.0 1.0 0.00 0.00 0.00 71 1048.0
20260507112626 42 268 1.0 1.0 0.00 0.00 0.00 71 1048.0
20260507112122 41 275 1.0 2.0 0.00 0.00 0.00 71 1048.0
20260507111619 41 280 0.0 0.0 0.00 0.00 0.00 73 1048.1
20260507111116 41 287 0.0 0.0 0.00 0.00 0.00 73 1048.0
20260507110612 41 297 0.0 0.0 0.00 0.00 0.00 73 1047.9
20260507110108 41 289 0.0 0.0 0.00 0.00 0.00 72 1047.9
20260507105606 41 291 0.0 0.0 0.00 0.00 0.00 71 1048.0
20260507105101 41 290 0.0 0.0 0.00 0.00 0.00 73 1048.1
20260507104559 41 284 0.0 0.0 0.00 0.00 0.00 71 1048.2
20260507104055 41 296 0.0 0.0 0.00 0.00 0.00 72 1048.2
20260507103551 41 299 0.0 0.0 0.00 0.00 0.00 72 1048.2
20260507103049 41 291 0.0 0.0 0.00 0.00 0.00 72 1048.2
20260507102545 41 286 0.0 0.0 0.00 0.00 0.00 73 1048.2
20260507102041 40 277 0.0 1.0 0.00 0.00 0.00 71 1048.3
20260507101536 40 259 0.0 0.0 0.00 0.00 0.00 75 1048.2
20260507101033 40 288 0.0 0.0 0.00 0.00 0.00 76 1048.5
20260507100531 40 302 0.0 0.0 0.00 0.00 0.00 75 1048.6
20260507100028 40 295 0.0 0.0 0.00 0.00 0.00 74 1048.7
20260507095526 41 299 0.0 0.0 0.00 0.00 0.00 74 1048.6
20260507095023 41 284 0.0 0.0 0.00 0.00 0.00 68 1048.5
20260507094519 42 295 0.0 0.0 0.00 0.00 0.00 67 1048.7
20260507094016 42 309 0.0 0.0 0.00 0.00 0.00 65 1048.5
20260507093513 43 301 0.0 0.0 0.00 0.00 0.00 65 1048.8
20260507093012 43 292 0.0 0.0 0.00 0.00 0.00 65 1049.0
20260507092508 43 296 0.0 0.0 0.00 0.00 0.00 64 1049.0
20260507092005 44 283 0.0 1.0 0.00 0.00 0.00 66 1049.0
20260507091501 44 309 0.0 0.0 0.00 0.00 0.00 68 1049.2
20260507090957 44 310 0.0 0.0 0.00 0.00 0.00 65 1049.3
20260507090453 44 318 0.0 0.0 0.00 0.00 0.00 67 1049.5
20260507085950 44 293 0.0 0.0 0.00 0.00 0.00 66 1049.7
20260507085447 44 299 0.0 0.0 0.00 0.00 0.00 65 1049.7
20260507084944 44 293 0.0 0.0 0.00 0.00 0.00 69 1049.5
20260507084441 44 299 0.0 0.0 0.00 0.00 0.00 65 1049.4
20260507083938 43 295 0.0 0.0 0.00 0.00 0.00 66 1049.5
20260507083434 43 296 0.0 0.0 0.00 0.00 0.00 66 1049.7
20260507082931 43 301 0.0 0.0 0.00 0.00 0.00 68 1049.9
20260507082427 42 295 0.0 0.0 0.00 0.00 0.00 68 1049.8
20260507081924 42 297 0.0 0.0 0.00 0.00 0.00 68 1049.7
20260507081420 42 291 0.0 1.0 0.00 0.00 0.00 69 1049.6
20260507080917 42 311 0.0 0.0 0.00 0.00 0.00 65 1049.9
20260507080413 42 304 0.0 0.0 0.00 0.00 0.00 67 1049.9
20260507075908 42 303 0.0 0.0 0.00 0.00 0.00 69 1050.1
20260507075404 41 296 0.0 0.0 0.00 0.00 0.00 67 1050.0
20260507074901 41 299 0.0 0.0 0.00 0.00 0.00 67 1050.0
20260507074358 41 309 0.0 0.0 0.00 0.00 0.00 67 1050.1
20260507073856 41 304 0.0 0.0 0.00 0.00 0.00 70 1050.1
20260507073352 41 296 0.0 0.0 0.00 0.00 0.00 69 1050.3
20260507072849 41 304 0.0 0.0 0.00 0.00 0.00 68 1050.2
20260507072347 41 297 0.0 0.0 0.00 0.00 0.00 69 1050.4
20260507071844 40 299 0.0 0.0 0.00 0.00 0.00 70 1050.4
20260507071341 39 315 0.0 0.0 0.00 0.00 0.00 71 1050.3
20260507070837 39 301 0.0 0.0 0.00 0.00 0.00 72 1050.6
20260507070335 39 303 0.0 0.0 0.00 0.00 0.00 72 1050.5
20260507065831 39 298 0.0 0.0 0.00 0.00 0.00 74 1050.7
20260507065328 38 297 0.0 0.0 0.00 0.00 0.00 76 1050.7
20260507064825 38 300 0.0 0.0 0.00 0.00 0.00 77 1050.7
20260507064324 38 306 0.0 0.0 0.00 0.00 0.00 77 1050.7
20260507063821 38 301 0.0 0.0 0.00 0.00 0.00 76 1050.8
20260507063318 38 301 0.0 0.0 0.00 0.00 0.00 79 1050.7
20260507062814 38 302 0.0 0.0 0.00 0.00 0.00 79 1050.8
20260507062312 38 305 0.0 0.0 0.00 0.00 0.00 81 1050.8
20260507061810 38 303 0.0 0.0 0.00 0.00 0.00 81 1050.7
20260507061307 38 308 0.0 0.0 0.00 0.00 0.00 84 1050.9
20260507060806 37 308 0.0 0.0 0.00 0.00 0.00 84 1051.3
20260507060302 37 301 0.0 0.0 0.00 0.00 0.00 83 1050.8
20260507055758 37 301 0.0 0.0 0.00 0.00 0.00 82 1051.0
20260507055253 37 302 0.0 0.0 0.00 0.00 0.00 82 1051.0
20260507054750 36 301 0.0 0.0 0.00 0.00 0.00 80 1051.3
20260507054247 36 300 0.0 0.0 0.00 0.00 0.00 81 1051.3
20260507053744 36 300 0.0 0.0 0.00 0.00 0.00 82 1051.0
20260507053242 36 298 0.0 0.0 0.00 0.00 0.00 83 1051.2
20260507052741 35 298 0.0 0.0 0.00 0.00 0.00 85 1051.2
20260507052236 35 296 0.0 0.0 0.00 0.00 0.00 87 1051.5
20260507051735 35 299 0.0 0.0 0.00 0.00 0.00 89 1051.4
20260507051231 35 299 0.0 0.0 0.00 0.00 0.00 90 1051.4
20260507050728 35 296 0.0 0.0 0.00 0.00 0.00 90 1051.2
20260507050225 36 299 0.0 0.0 0.00 0.00 0.00 89 1051.4
20260507045722 36 299 0.0 0.0 0.00 0.00 0.00 89 1051.2
20260507045218 36 299 0.0 0.0 0.00 0.00 0.00 88 1051.4
20260507044715 35 307 0.0 0.0 0.00 0.00 0.00 87 1051.4
20260507044211 35 300 0.0 0.0 0.00 0.00 0.00 87 1051.6
20260507043708 36 300 0.0 0.0 0.00 0.00 0.00 87 1051.6
20260507043205 36 300 0.0 0.0 0.00 0.00 0.00 87 1051.6
20260507042701 37 300 0.0 0.0 0.00 0.00 0.00 87 1051.4
20260507042156 37 300 0.0 0.0 0.00 0.00 0.00 86 1051.7
20260507041654 37 303 0.0 0.0 0.00 0.00 0.00 86 1051.6
20260507041150 37 299 0.0 0.0 0.00 0.00 0.00 87 1051.7
20260507040647 37 301 0.0 0.0 0.00 0.00 0.00 88 1051.7
20260507040143 37 299 0.0 0.0 0.00 0.00 0.00 84 1051.8
20260507035639 37 299 0.0 0.0 0.00 0.00 0.00 84 1051.8
20260507035135 38 299 0.0 0.0 0.00 0.00 0.00 83 1051.7
20260507034632 38 300 0.0 0.0 0.00 0.00 0.00 84 1051.9
20260507034130 38 299 0.0 0.0 0.00 0.00 0.00 85 1051.9
20260507033628 38 298 0.0 0.0 0.00 0.00 0.00 83 1051.9
20260507033125 39 298 0.0 0.0 0.00 0.00 0.00 82 1051.7
20260507032623 39 299 0.0 0.0 0.00 0.00 0.00 80 1051.9
20260507032118 39 298 0.0 0.0 0.00 0.00 0.00 80 1052.0
20260507031615 40 298 0.0 0.0 0.00 0.00 0.00 77 1052.0
20260507031112 39 300 0.0 0.0 0.00 0.00 0.00 77 1052.0
20260507030608 39 301 0.0 0.0 0.00 0.00 0.00 80 1051.9
20260507030107 39 299 0.0 0.0 0.00 0.00 0.00 78 1052.1
20260507025603 40 299 0.0 0.0 0.00 0.00 0.00 77 1052.1
20260507025100 40 299 0.0 0.0 0.00 0.00 0.00 79 1052.1
20260507024558 41 299 0.0 0.0 0.00 0.00 0.00 75 1052.0
20260507024050 41 299 0.0 0.0 0.00 0.00 0.00 71 1052.1
20260507023545 41 300 0.0 0.0 0.00 0.00 0.00 75 1051.9
20260507023043 40 301 0.0 0.0 0.00 0.00 0.00 76 1052.1
20260507022540 40 299 0.0 0.0 0.00 0.00 0.00 76 1052.1
20260507022035 41 298 0.0 0.0 0.00 0.00 0.00 76 1051.9
20260507021531 41 298 0.0 0.0 0.00 0.00 0.00 75 1051.9
20260507021028 42 299 0.0 0.0 0.00 0.00 0.00 72 1051.8
20260507020526 43 299 0.0 0.0 0.00 0.00 0.00 66 1051.9
20260507020022 43 300 0.0 0.0 0.00 0.00 0.00 62 1051.9
20260507015521 44 302 0.0 0.0 0.00 0.00 0.00 63 1051.9
20260507015018 45 299 0.0 0.0 0.00 0.00 0.00 63 1051.9
20260507014514 46 299 0.0 0.0 0.00 0.00 0.00 56 1051.8
20260507014010 46 299 0.0 0.0 0.00 0.00 0.00 50 1051.8
20260507013507 47 299 0.0 0.0 0.00 0.00 0.00 50 1051.9
20260507013004 48 303 0.0 0.0 0.00 0.00 0.00 46 1051.8
20260507012500 50 295 0.0 0.0 0.00 0.00 0.00 50 1051.9
20260507011951 51 300 0.0 0.0 0.00 0.00 0.00 43 1051.9
20260507011448 51 295 0.0 0.0 0.00 0.00 0.00 41 1051.7
20260507010943 53 280 0.0 1.0 0.00 0.00 0.00 39 1051.8
20260507010438 53 278 1.0 2.0 0.00 0.00 0.00 35 1051.6
20260507005935 53 275 1.0 3.0 0.00 0.00 0.00 34 1051.8
20260507005433 54 271 2.0 2.0 0.00 0.00 0.00 34 1051.7
20260507004930 54 271 3.0 3.0 0.00 0.00 0.00 34 1051.6
20260507004426 54 310 0.0 1.0 0.00 0.00 0.00 35 1051.7
20260507003924 55 276 1.0 3.0 0.00 0.00 0.00 33 1051.8
20260507003418 55 282 3.0 5.0 0.00 0.00 0.00 33 1051.8
20260507002913 55 251 3.0 3.0 0.00 0.00 0.00 33 1051.8
20260507002410 55 290 3.0 3.0 0.00 0.00 0.00 33 1051.9
20260507001907 55 276 0.0 5.0 0.00 0.00 0.00 33 1052.1
20260507001404 56 294 3.0 5.0 0.00 0.00 0.00 33 1051.8
20260507000856 56 301 2.0 5.0 0.00 0.00 0.00 32 1052.1
20260507000351 56 266 2.0 6.0 0.00 0.00 0.00 32 1052.0
20260506235847 56 234 4.0 9.0 0.00 0.00 0.00 31 1052.2
20260506235344 56 283 3.0 7.0 0.00 0.00 0.00 32 1052.0
20260506234840 56 266 6.0 9.0 0.00 0.00 0.00 31 1052.0
20260506234338 56 264 8.0 10.0 0.00 0.00 0.00 31 1052.2
20260506233835 56 274 4.0 10.0 0.00 0.00 0.00 31 1052.1
20260506233331 57 338 6.0 8.0 0.00 0.00 0.00 32 1052.1
20260506232828 57 278 4.0 8.0 0.00 0.00 0.00 31 1052.0
20260506232324 56 294 5.0 11.0 0.00 0.00 0.00 31 1052.1
20260506231820 57 271 8.0 9.0 0.00 0.00 0.00 32 1052.2
20260506231318 57 289 0.0 6.0 0.00 0.00 0.00 32 1052.3
20260506230815 55 258 5.0 10.0 0.00 0.00 0.00 32 1052.4
20260506230312 55 255 8.0 10.0 0.00 0.00 0.00 33 1052.3
20260506225808 56 254 2.0 10.0 0.00 0.00 0.00 33 1052.6
20260506225306 56 294 4.0 10.0 0.00 0.00 0.00 34 1052.2
20260506224802 55 273 5.0 13.0 0.00 0.00 0.00 34 1052.5
20260506224259 56 294 6.0 11.0 0.00 0.00 0.00 32 1052.4
20260506223755 57 274 8.0 10.0 0.00 0.00 0.00 32 1052.4
20260506223251 56 283 6.0 10.0 0.00 0.00 0.00 33 1052.3
20260506222748 56 322 4.0 7.0 0.00 0.00 0.00 32 1052.4
20260506222244 57 273 3.0 9.0 0.00 0.00 0.00 33 1052.3
20260506221742 58 267 3.0 6.0 0.00 0.00 0.00 32 1052.4
20260506221240 57 316 4.0 6.0 0.00 0.00 0.00 32 1052.3
20260506220731 56 274 5.0 9.0 0.00 0.00 0.00 34 1052.4
20260506220231 56 298 9.0 17.0 0.00 0.00 0.00 33 1052.5
20260506215723 57 264 8.0 10.0 0.00 0.00 0.00 31 1052.6
20260506215219 56 269 9.0 16.0 0.00 0.00 0.00 33 1052.6
20260506214715 57 235 4.0 9.0 0.00 0.00 0.00 35 1052.7
20260506214213 56 262 5.0 10.0 0.00 0.00 0.00 34 1052.6
20260506213711 56 275 13.0 17.0 0.00 0.00 0.00 32 1052.5
20260506213208 58 236 11.0 17.0 0.00 0.00 0.00 32 1052.4
20260506212705 57 78 1.0 7.0 0.00 0.00 0.00 33 1052.4
20260506212200 58 276 10.0 13.0 0.00 0.00 0.00 32 1052.6
20260506211655 57 319 8.0 10.0 0.00 0.00 0.00 34 1052.6
20260506211152 55 286 5.0 15.0 0.00 0.00 0.00 34 1052.9
20260506210649 56 297 8.0 13.0 0.00 0.00 0.00 33 1052.6
20260506210146 55 269 9.0 14.0 0.00 0.00 0.00 34 1052.9
20260506205643 56 252 5.0 10.0 0.00 0.00 0.00 33 1053.0
20260506205138 56 297 6.0 13.0 0.00 0.00 0.00 34 1053.0
20260506204636 57 305 6.0 13.0 0.00 0.00 0.00 32 1053.0
20260506204133 58 250 4.0 10.0 0.00 0.00 0.00 33 1052.9
20260506203631 56 258 5.0 8.0 0.00 0.00 0.00 36 1053.0
20260506203127 57 266 6.0 9.0 0.00 0.00 0.00 34 1053.1
20260506202626 56 256 7.0 13.0 0.00 0.00 0.00 36 1053.1
20260506202122 57 259 5.0 11.0 0.00 0.00 0.00 33 1052.7
20260506201619 56 261 6.0 10.0 0.00 0.00 0.00 33 1053.0
20260506201115 56 264 6.0 15.0 0.00 0.00 0.00 34 1053.1
20260506200612 57 277 5.0 16.0 0.00 0.00 0.00 35 1053.1
20260506200109 57 251 6.0 8.0 0.00 0.00 0.00 33 1053.1
20260506195605 57 295 10.0 16.0 0.00 0.00 0.00 33 1053.3
20260506195102 56 278 5.0 9.0 0.00 0.00 0.00 37 1053.3
20260506194600 57 264 8.0 13.0 0.00 0.00 0.00 37 1053.2
20260506194055 57 328 7.0 13.0 0.00 0.00 0.00 37 1053.4
20260506193553 57 283 7.0 9.0 0.00 0.00 0.00 36 1053.2
20260506193050 56 245 3.0 11.0 0.00 0.00 0.00 37 1053.2
20260506192547 56 291 6.0 11.0 0.00 0.00 0.00 39 1053.3
20260506192043 55 237 9.0 13.0 0.00 0.00 0.00 35 1053.4
20260506191539 54 284 5.0 11.0 0.00 0.00 0.00 37 1053.4
20260506191035 54 140 3.0 7.0 0.00 0.00 0.00 37 1053.6
20260506190532 53 257 2.0 9.0 0.00 0.00 0.00 39 1053.4
20260506190029 55 311 5.0 8.0 0.00 0.00 0.00 35 1053.5
20260506185527 54 283 4.0 9.0 0.00 0.00 0.00 39 1053.5
20260506185023 53 284 3.0 14.0 0.00 0.00 0.00 37 1053.7
20260506184521 54 308 6.0 9.0 0.00 0.00 0.00 37 1053.7
20260506184018 54 274 5.0 9.0 0.00 0.00 0.00 38 1053.5
20260506183513 54 267 7.0 10.0 0.00 0.00 0.00 36 1053.7
20260506183010 54 237 7.0 13.0 0.00 0.00 0.00 38 1053.7
20260506182508 54 255 5.0 10.0 0.00 0.00 0.00 37 1053.8
20260506182005 52 261 5.0 13.0 0.00 0.00 0.00 38 1053.8
20260506181503 52 273 4.0 11.0 0.00 0.00 0.00 37 1053.8
20260506180959 53 259 8.0 10.0 0.00 0.00 0.00 40 1053.8
20260506180455 53 280 10.0 14.0 0.00 0.00 0.00 37 1053.9
20260506175947 52 229 5.0 9.0 0.00 0.00 0.00 38 1054.1
20260506175443 53 6 3.0 10.0 0.00 0.00 0.00 39 1054.0
20260506174940 53 264 7.0 10.0 0.00 0.00 0.00 40 1054.2
20260506174438 53 275 5.0 8.0 0.00 0.00 0.00 41 1054.2
20260506173935 52 282 5.0 9.0 0.00 0.00 0.00 41 1054.2
20260506173432 52 260 8.0 9.0 0.00 0.00 0.00 40 1054.3
20260506172929 51 296 3.0 7.0 0.00 0.00 0.00 42 1054.4
20260506172426 51 269 5.0 7.0 0.00 0.00 0.00 40 1054.5
20260506171923 51 294 4.0 9.0 0.00 0.00 0.00 42 1054.4
20260506171420 51 323 6.0 9.0 0.00 0.00 0.00 41 1054.3
20260506170917 51 273 5.0 8.0 0.00 0.00 0.00 41 1054.2
20260506170413 51 315 3.0 7.0 0.00 0.00 0.00 42 1054.4
20260506165912 51 294 4.0 9.0 0.00 0.00 0.00 40 1054.4
20260506165410 51 275 4.0 8.0 0.00 0.00 0.00 43 1054.3
20260506164906 51 247 6.0 10.0 0.00 0.00 0.00 42 1054.2
20260506164403 51 282 7.0 9.0 0.00 0.00 0.00 40 1054.5
20260506163901 51 283 6.0 9.0 0.00 0.00 0.00 40 1054.3
20260506163356 51 305 5.0 6.0 0.00 0.00 0.00 41 1054.3
20260506162850 51 267 5.0 7.0 0.00 0.00 0.00 41 1054.3
20260506162349 51 264 5.0 10.0 0.00 0.00 0.00 40 1054.3
20260506161846 51 271 10.0 13.0 0.00 0.00 0.00 40 1054.3
20260506161343 50 267 5.0 9.0 0.00 0.00 0.00 41 1054.4
20260506160836 51 254 3.0 7.0 0.00 0.00 0.00 44 1054.2
20260506160332 50 16 1.0 7.0 0.00 0.00 0.00 44 1054.2
20260506155831 51 278 6.0 9.0 0.00 0.00 0.00 42 1054.4
20260506155327 52 251 4.0 11.0 0.00 0.00 0.00 40 1054.4
20260506153444 50 288 4.0 11.0 0.00 0.00 0.00 44 1054.3
20260506152942 50 273 3.0 8.0 0.00 0.00 0.00 46 1054.2
20260506152438 50 276 5.0 13.0 0.00 0.00 0.00 45 1054.2
20260506151937 50 254 8.0 13.0 0.00 0.00 0.00 44 1054.2
20260506151434 51 88 2.0 6.0 0.00 0.00 0.00 44 1054.0
20260506150932 51 284 9.0 13.0 0.00 0.00 0.00 44 1054.2
20260506150427 50 298 6.0 9.0 0.00 0.00 0.00 45 1054.1
20260506145924 50 266 2.0 9.0 0.00 0.00 0.00 46 1054.2
20260506145421 51 285 5.0 7.0 0.00 0.00 0.00 45 1054.2
20260506144918 49 295 0.0 2.0 0.00 0.00 0.00 51 1054.1
20260506144414 50 269 4.0 8.0 0.00 0.00 0.00 46 1054.0
20260506143914 48 355 0.0 3.0 0.00 0.00 0.00 48 1054.1
20260506143410 48 303 1.0 6.0 0.00 0.00 0.00 48 1054.0
20260506142908 48 318 1.0 5.0 0.00 0.00 0.00 47 1054.0
20260506142406 49 326 0.0 2.0 0.00 0.00 0.00 48 1054.2
20260506141904 49 304 2.0 2.0 0.00 0.00 0.00 47 1054.2
20260506141401 48 283 2.0 5.0 0.00 0.00 0.00 50 1054.0
20260506140859 50 240 4.0 5.0 0.00 0.00 0.00 47 1053.8
20260506140356 48 268 1.0 2.0 0.00 0.00 0.00 49 1053.8
20260506135853 47 266 1.0 5.0 0.00 0.00 0.00 54 1053.9
20260506135350 47 246 1.0 3.0 0.00 0.00 0.00 53 1053.8
20260506134846 46 292 4.0 6.0 0.00 0.00 0.00 53 1053.9
20260506134342 46 24 2.0 6.0 0.00 0.00 0.00 57 1053.7
20260506133840 47 281 3.0 6.0 0.00 0.00 0.00 54 1053.7
20260506133336 47 328 1.0 3.0 0.00 0.00 0.00 54 1053.7
20260506132833 46 284 3.0 3.0 0.00 0.00 0.00 56 1053.5
20260506132330 46 273 2.0 3.0 0.00 0.00 0.00 56 1053.5
20260506131828 46 287 1.0 2.0 0.00 0.00 0.00 58 1053.6
20260506131324 45 292 1.0 3.0 0.00 0.00 0.00 59 1053.7
20260506130822 44 306 1.0 2.0 0.00 0.00 0.00 60 1053.6
20260506130318 44 265 3.0 5.0 0.00 0.00 0.00 61 1053.5
20260506125816 42 288 0.0 2.0 0.00 0.00 0.00 67 1053.3
20260506125314 42 297 0.0 3.0 0.00 0.00 0.00 66 1053.4
20260506124812 41 290 1.0 1.0 0.00 0.00 0.00 66 1053.4
20260506124309 41 295 1.0 2.0 0.00 0.00 0.00 68 1053.2
20260506123806 40 302 2.0 2.0 0.00 0.00 0.00 69 1053.1
20260506123300 40 292 2.0 3.0 0.00 0.00 0.00 68 1053.2
20260506122756 40 302 3.0 3.0 0.00 0.00 0.00 69 1053.1
20260506122253 39 279 2.0 2.0 0.00 0.00 0.00 68 1053.0
20260506121751 39 283 1.0 1.0 0.00 0.00 0.00 69 1052.9
20260506121248 39 278 1.0 1.0 0.00 0.00 0.00 69 1052.8
20260506120745 38 288 0.0 0.0 0.00 0.00 0.00 71 1052.8
20260506120243 38 294 0.0 0.0 0.00 0.00 0.00 74 1052.8
20260506115740 38 294 0.0 0.0 0.00 0.00 0.00 76 1052.8
20260506115238 38 292 0.0 0.0 0.00 0.00 0.00 75 1052.9
20260506114736 38 290 0.0 0.0 0.00 0.00 0.00 74 1052.6
20260506114233 38 283 0.0 0.0 0.00 0.00 0.00 72 1052.7